Regional Weather Roundup
Issued by NWS

Home | Current Version | Previous Version | Graphics & Text | Print | Product List | Glossary On
Versions: 1 2 3 4 5 6 7 8 9 10 11 12 13 14 15 16 17 18 19 20 21 22 23 24 25 26 27 28 29 30 31 32 33 34 35 36 37 38 39 40 41 42 43 44 45 46 47 48 49 50
000
ASUS45 KSLC 180910
RWRUT

UTAH REGIONAL WEATHER ROUNDUP
NATIONAL WEATHER SERVICE SALT LAKE CITY UT
200 AM MST THU DEC 18 2014

UTZ001>011-023>025-181000-

NORTHERN UTAH

CITY           SKY/WX    TMP DP  RH WIND       PRES   REMARKS
BRIGHAM CITY   CLEAR     31  27  87 CALM      30.08S
HILL AFB       CLEAR     31  26  80 E7        30.06S WCI  24
LOGAN          CLOUDY    30  27  88 W5        30.06S WCI  25
OGDEN          CLEAR     30  25  81 SE5       30.06S WCI  25
PROVO AIRPORT  PTCLDY    34  30  86 S5        30.08S WCI  30
SALT LAKE CITY PTCLDY    32  29  88 E5        30.06S WCI  27
VERNAL         CLOUDY    25  23  92 S3        30.10S
WENDOVER       CLEAR     21  18  86 CALM      30.07S
HEBER CITY     CLOUDY    28  25  86 CALM      30.06R
WEST JORDAN    CLEAR     30  30 100 SW8       30.06S WCI  23

$$

UTZ012>022-026-027-181000-

SOUTHERN/CENTRAL UTAH

CITY           SKY/WX    TMP DP  RH WIND       PRES   REMARKS
BLANDING       CLOUDY    31  31 100 CALM      30.15S
BRYCE CANYON   CLOUDY    21  18  88 W6        30.06S WCI  13
CEDAR CITY     CLOUDY    33  31  92 S5        30.06S WCI  29
DELTA          CLOUDY    32  31  96 SE3       30.06S
MILFORD        CLOUDY    34  31  88 S9        30.06R WCI  27
MOAB/CYNLANDS  CLOUDY    33  32  96 CALM      30.07R
PRICE          MOCLDY    26  22  84 E5        30.05S WCI  20
ST GEORGE      CLOUDY    43  37  81 CALM      30.12S

$$

REGIONAL REPORTS     COLORADO/ARIZONA

CITY           SKY/WX    TMP DP  RH WIND       PRES   REMARKS
CRAIG, CO      CLOUDY    26  24  92 W3        30.06S FOG
GRAND JUNCTION LGT RAIN  33  33 100 N8        30.06R WCI  26
RIFLE          LGT SNOW  33  32  96 W6        30.05R FOG     WCI  28
MONTROSE       LGT SNOW  32  32 100 CALM      30.07S FOG
CORTEZ         CLOUDY    33  32  96 E3        30.09S
PAGE, AZ       CLOUDY    38  34  85 CALM      30.09S
GRAND CANYON   LGT SNOW  30  29  96 CALM      30.10R FOG
KINGMAN        CLOUDY    39  37  92 SE6       30.10S WCI  35
FLAGSTAFF      LGT SNOW  30  28  92 CALM      30.09S FOG

$$

REGIONAL REPORTS    NEVADA/IDAHO/WYOMING

CITY           SKY/WX    TMP DP  RH WIND       PRES   REMARKS
LAS VEGAS, NV  CLOUDY    49  43  80 S3        30.04F
ELY            CLOUDY    26  21  81 S7        30.06S WCI  18
ELKO           CLOUDY    27  26  96 CALM      30.06S
POCATELLO, ID  CLEAR     22  22 100 E3        30.06R
BURLEY         CLEAR     24  22  91 CALM      30.03S
EVANSTON, WY   CLEAR     23  19  85 SW7       30.03S WCI  15
ROCK SPRINGS   PTCLDY    16  12  84 W12       30.01F WCI   3
KEMMERER       MOCLDY    21  18  86 W3        30.02S

$$


USA.gov is the U.S. government's official web portal to all federal, state and local government web resources and services.